K7JGC-9 Weather Reports


time (UTC)temp
C
wind
direction
speed
KPH
gust
KPH
rain 1hr
cm
rain 24hr
cm
rain mn
cm
humidity
%
barometer
mb
20260507095421 12 175 0.0 0.0 0.00 0.00 0.00 75 1021.9
20260507092420 12 180 0.0 0.0 0.00 0.00 0.00 76 1022.0
20260507085418 12 179 0.0 0.0 0.00 0.00 0.00 75 1022.3
20260507082415 12 178 0.0 0.0 0.00 0.00 0.00 75 1022.3
20260507075410 12 181 0.0 0.0 0.00 0.00 0.00 76 1022.2
20260507072410 12 180 0.0 0.0 0.00 0.00 0.00 78 1022.2
20260507065409 12 176 0.0 0.0 0.00 0.00 0.00 77 1022.3
20260507062404 13 179 0.0 0.0 0.00 0.00 0.00 77 1022.1
20260507055404 13 177 0.0 0.0 0.00 0.00 0.00 77 1022.2
20260507052400 12 180 0.0 0.0 0.00 0.00 0.00 78 1022.3
20260507045359 13 177 0.0 0.0 0.00 0.00 0.00 75 1022.1
20260507042355 13 178 0.0 0.0 0.00 0.00 0.00 74 1021.9
20260507035350 15 177 0.0 0.0 0.00 0.00 0.00 73 1021.8
20260507032350 15 180 0.0 0.0 0.00 0.00 0.00 72 1021.3
20260507025349 16 178 0.0 0.0 0.00 0.00 0.00 72 1020.8
20260507022347 16 177 0.0 0.0 0.00 0.00 0.00 70 1020.7
20260507015346 17 176 0.0 0.0 0.00 0.00 0.00 68 1020.9
20260507012343 18 179 0.0 0.0 0.00 0.00 0.00 65 1020.8
20260507005339 20 180 0.0 0.0 0.00 0.00 0.00 63 1020.7
20260507002334 20 175 0.0 0.0 0.00 0.00 0.00 64 1020.4
20260506235332 20 179 0.0 0.0 0.00 0.00 0.00 64 1020.4
20260506232330 21 177 0.0 0.0 0.00 0.00 0.00 63 1020.5
20260506225329 21 180 0.0 0.0 0.00 0.00 0.00 61 1020.8
20260506222325 21 182 0.0 0.0 0.00 0.00 0.00 62 1021.0
20260506215324 20 177 0.0 0.0 0.00 0.00 0.00 65 1021.2
20260506212323 20 179 0.0 0.0 0.00 0.00 0.00 67 1021.3
20260506205319 19 177 0.0 0.0 0.00 0.00 0.00 67 1021.7
20260506202314 18 178 0.0 0.0 0.00 0.00 0.00 69 1021.6
20260506195312 17 175 0.0 0.0 0.00 0.00 0.00 73 1021.6
20260506192309 17 177 0.0 0.0 0.00 0.00 0.00 72 1022.0
20260506185307 16 177 0.0 0.0 0.00 0.00 0.00 74 1021.9
20260506182306 16 180 0.0 0.0 0.00 0.00 0.00 74 1021.8
20260506175306 16 182 0.0 0.0 0.00 0.00 0.00 75 1021.7
20260506172306 16 176 0.0 0.0 0.00 0.00 0.00 74 1021.5
20260506165258 15 180 0.0 0.0 0.00 0.00 0.00 77 1021.6
20260506162255 15 181 0.0 0.0 0.00 0.00 0.00 78 1021.5
20260506155251 15 176 0.0 0.0 0.00 0.00 0.00 79 1020.9
20260506152248 13 178 0.0 0.0 0.00 0.00 0.00 82 1021.6
20260506145247 13 176 0.0 0.0 0.00 0.00 0.00 82 1021.4
20260506142244 13 179 0.0 0.0 0.00 0.00 0.00 82 1020.9
20260506135239 13 177 0.0 0.0 0.00 0.00 0.00 85 1020.6
20260506132238 13 177 0.0 0.0 0.00 0.00 0.00 87 1020.5
20260506125233 13 177 0.0 0.0 0.00 0.00 0.00 86 1020.1
20260506122229 13 177 0.0 0.0 0.00 0.00 0.00 85 1020.1
20260506115226 13 177 0.0 0.0 0.00 0.00 0.00 84 1019.8
20260506112222 13 177 0.0 0.0 0.00 0.00 0.00 84 1019.8
20260506105223 13 177 0.0 0.0 0.00 0.00 0.00 83 1019.3
20260506102220 13 177 0.0 0.0 0.00 0.00 0.00 84 1018.9